Meteo Giornale » Osservazioni meteo Giappone » Tokushima Ab
ore: 03:00 - Osservazioni Meteo Tokushima Ab
Lat. 34° 8' N Lon. 134° 37' E Alt. 8 metri s.l.m.
28 °C
Poco Nuvoloso
Temp. 24 Ore
26 °C
33 °C
Sud
13 Km/h
Dew point 24 °C
Umidità 78 %
Visibilità 10 Km
Il sole sorge alle ore 05:35
Il sole tramonta alle ore 18:27
| Data e Ora | Cielo e Fenomeni | T °C | DP °C | Um. % | Pres. hPa | Vis. km | Vento km/h | |
|---|---|---|---|---|---|---|---|---|
| Oggi h: 03:00 | Poco Nuvoloso | 28 | 24 | 78 | 1013 | 10 | S 13 | |
| Oggi h: 02:00 | Poco Nuvoloso | 28 | 24 | 78 | 1013 | 10 | S 14.8 | |
| Oggi h: 01:00 | Poco Nuvoloso | 28 | 23 | 74 | 1013 | 10 | S 22.2 | |
| Oggi h: 00:00 | Poco Nuvoloso | 28 | 23 | 74 | 1014 | 10 | S 22.2 | |
| Ieri h: 23:00 | Poco Nuvoloso | 28 | 23 | 74 | 1014 | 10 | S 18.5 | |
| Ieri h: 22:00 | Poco Nuvoloso | 29 | 23 | 70 | 1014 | 10 | S 22.2 | |
| Ieri h: 21:00 | Poco Nuvoloso | 29 | 22 | 66 | 1014 | 10 | S 22.2 | |
| Ieri h: 20:00 | Poco Nuvoloso | 29 | 22 | 66 | 1013 | 10 | S 27.8 | |
| Ieri h: 19:00 | Poco Nuvoloso | 30 | 22 | 62 | 1013 | 10 | S 29.6 | |
| Ieri h: 18:00 | Poco Nuvoloso | 30 | 23 | 66 | 1012 | 10 | S 37 | |
| Ieri h: 17:00 | Poco Nuvoloso | 32 | 23 | 59 | 1012 | 10 | S/SE 33.3 | |
| Ieri h: 16:00 | Poco Nuvoloso | 33 | 21 | 49 | 1012 | 10 | S/SE 31.5 | |
| Ieri h: 15:00 | Poco Nuvoloso | 32 | 23 | 59 | 1012 | 10 | S/SE 33.3 | |
| Ieri h: 14:00 | Poco Nuvoloso | 32 | 24 | 62 | 1012 | 10 | S/SE 31.5 | |
| Ieri h: 13:00 | Poco Nuvoloso | 32 | 24 | 62 | 1013 | 10 | SE 27.8 | |
| Ieri h: 12:00 | Poco Nuvoloso | 31 | 24 | 66 | 1013 | 10 | SE 29.6 | |
| Ieri h: 11:00 | Poco Nuvoloso | 32 | 24 | 62 | 1013 | 10 | SE 24 | |
| Ieri h: 10:00 | Poco Nuvoloso | 31 | 24 | 66 | 1014 | 10 | SE 22.2 | |
| Ieri h: 09:00 | Poco Nuvoloso | 30 | 23 | 66 | 1014 | 10 | SE 14.8 | |
| Ieri h: 08:00 | Poco Nuvoloso | 28 | 22 | 69 | 1014 | 10 | S/SE 9.3 | |
| Ieri h: 07:00 | Poco Nuvoloso | 26 | 23 | 83 | 1013 | 10 | N 3.7 | |
| Ieri h: 06:00 | Poco Nuvoloso | 26 | 23 | 83 | 1013 | 10 | N 5.5 | |
| Ieri h: 05:00 | Poco Nuvoloso | 26 | 23 | 83 | 1013 | 10 | N 5.5 | |
| Ieri h: 04:00 | Poco Nuvoloso | 27 | 22 | 74 | 1013 | 10 | S 14.8 | |



